Tracking 31027 objects as of 19-Jul-2025
HD Live streaming from Space Station
objects crossing your sky now

STARLINK-5084

Track STARLINK-5084 now!
10-day predictions
STARLINK-5084 is classified as:


NORAD ID: 54851
Int'l Code: 2022-177AH
Perigee: 565.3 km
Apogee: 567.1 km
Inclination: 43.0 °
Period: 95.8 minutes
Semi major axis: 6937 km
RCS: Unknown
Launch date: December 28, 2022
Source: United States (US)
Launch site: AIR FORCE EASTERN TEST RANGE (AFETR)
Your satellite tracking list
FENGYUN 1C DEB
Track 1 satellite(s)




NASA's NSSDC Master Catalog

Two Line Element Set (TLE):
1 54851U 22177AH  25199.70116348 -.00001717  00000-0 -11211-3 0  9995
2 54851  43.0047 312.0690 0001294 264.4072  95.6623 15.02527597140925
Source of the keplerian elements: AFSPC